San Luis Obispo, CA

3:42 PM PDT on October 16, 2017 (GMT -0700)
San Luis Obispo County-McChesney

Weather History for KSBP - February, 2013

Change the Weather History Date:

Monday, February 4, 2013

  Actual Average Record
Temperature  
Mean Temperature 50 °F -  
Max Temperature 64 °F 65 °F 84 °F (2001)
Min Temperature 37 °F 42 °F 30 °F (1955)
Degree Days  
Heating Degree Days 14    
Moisture  
Dew Point 43 °F    
Average Humidity 94    
Maximum Humidity 100    
Minimum Humidity 52    
Precipitation  
Precipitation 0.01 in - - ()
Sea Level Pressure  
Sea Level Pressure 30.08 in    
Wind  
Wind Speed 3 mph (East)    
Max Wind Speed 17 mph    
Max Gust Speed -    
Visibility 4 miles    
Events Fog    
Averages and records for this station are not official NWS values.
T = Trace of Precipitation, MM = Missing Value Source: NWS Daily Summary

Daily Weather History Graph

Daily Weather History Graph

Search for Another Location

Airport or City:

Trip Planner

Search our weather history database for the weather conditions in past years. The results will help you decide how hot, cold, wet, or windy it might be!

Date:

Astronomy

Feb. 04, 2013 Rise Set
Actual Time 6:59 AM PST 5:34 PM PST
Civil Twilight 6:32 AM PST 6:00 PM PST
Nautical Twilight 6:02 AM PST 6:31 PM PST
Astronomical Twilight 5:32 AM PST 7:00 PM PST
Moon 1:37 AM PST (2/4) 12:05 PM PST (2/4)
Length of Visible Light 11h 28m
Length of Day
10h 35m
Last Quarter, 36% of the Moon is Illuminated
Feb 4
Last Quarter
Feb 9
New
Feb 17
First Quarter
Feb 25
Full
Mar 4
Last Quarter

Hourly Weather History & Observations

Time (PST) Temp. Windchill Dew Point Humidity Pressure Visibility Wind Dir Wind Speed Gust Speed Precip Events Conditions
12:20 AM 42.8 °F 41.1 °F 42.8 °F 100% 30.12 in 8.0 mi ESE 3.5 mph - N/A   Mostly Cloudy
12:32 AM 42.8 °F 40.1 °F 41.0 °F 93% 30.12 in 2.0 mi ESE 4.6 mph - N/A   Overcast
12:36 AM 42.8 °F 40.1 °F 41.0 °F 93% 30.12 in 0.8 mi ESE 4.6 mph - N/A   Overcast
12:49 AM 42.8 °F 41.1 °F 42.8 °F 100% 30.11 in 1.5 mi ESE 3.5 mph - N/A   Overcast
12:56 AM 42.1 °F 39.2 °F 41.0 °F 96% 30.12 in 3.0 mi ESE 4.6 mph - N/A   Overcast
1:06 AM 41.0 °F 39.0 °F 41.0 °F 100% 30.11 in 1.5 mi SE 3.5 mph - N/A   Overcast
1:15 AM 41.0 °F 39.0 °F 41.0 °F 100% 30.11 in 0.5 mi SSE 3.5 mph - N/A Fog Fog
1:24 AM 41.0 °F - 41.0 °F 100% 30.11 in 2.5 mi Calm Calm - N/A   Overcast
1:31 AM 41.0 °F - 41.0 °F 100% 30.11 in 9.0 mi Calm Calm - N/A   Mostly Cloudy
2:56 AM 42.1 °F - 42.1 °F 100% 30.11 in 0.2 mi Calm Calm - N/A Fog Fog
3:56 AM 41.0 °F 39.0 °F 41.0 °F 100% 30.09 in 0.2 mi ESE 3.5 mph - N/A Fog Fog
4:33 AM 39.2 °F - 39.2 °F 100% 30.08 in 0.5 mi Calm Calm - N/A Fog Fog
4:40 AM 39.2 °F - 39.2 °F 100% 30.09 in 0.2 mi Calm Calm - N/A Fog Fog
4:56 AM 39.9 °F 37.8 °F 39.9 °F 100% 30.09 in 0.2 mi East 3.5 mph - N/A Fog Fog
5:33 AM 39.2 °F 37.0 °F 39.2 °F 100% 30.07 in 0.2 mi SE 3.5 mph - N/A Fog Fog
5:46 AM 37.4 °F - 37.4 °F 100% 30.07 in 4.0 mi Calm Calm - N/A   Mostly Cloudy
5:56 AM 37.9 °F - 37.9 °F 100% 30.07 in 0.5 mi Calm Calm - 0.01 in   Mostly Cloudy
6:03 AM 39.2 °F - 39.2 °F 100% 30.07 in 0.5 mi Calm Calm - N/A Fog Fog
6:10 AM 37.4 °F - 37.4 °F 100% 30.07 in 0.5 mi Calm Calm - N/A Fog Fog
6:37 AM 39.2 °F 35.0 °F 39.2 °F 100% 30.07 in 6.0 mi East 5.8 mph - N/A   Scattered Clouds
6:56 AM 39.9 °F 35.8 °F 39.9 °F 100% 30.08 in 5.0 mi SE 5.8 mph - N/A   Scattered Clouds
7:56 AM 41.0 °F - 41.0 °F 100% 30.10 in 5.0 mi Calm Calm - N/A   Partly Cloudy
8:56 AM 48.0 °F - 45.0 °F 89% 30.12 in 5.0 mi Calm Calm - N/A   Clear
9:56 AM 54.0 °F - 46.9 °F 77% 30.12 in 6.0 mi Calm Calm - N/A   Haze
10:56 AM 62.1 °F - 44.1 °F 52% 30.11 in 8.0 mi Calm Calm - N/A   Clear
1:56 PM 64.0 °F - 52.0 °F 65% 30.02 in 7.0 mi NW 16.1 mph - N/A   Clear
2:56 PM 62.1 °F - 50.0 °F 65% 30.01 in 7.0 mi NW 17.3 mph - N/A   Clear
3:56 PM 60.1 °F - 48.9 °F 67% 30.02 in 7.0 mi NW 16.1 mph - N/A   Clear
5:56 PM 51.1 °F - 48.9 °F 92% 30.04 in 7.0 mi NW 8.1 mph - N/A   Clear
6:56 PM 50.0 °F - 48.0 °F 93% 30.04 in 9.0 mi WNW 4.6 mph - N/A   Clear
7:56 PM 48.9 °F - 46.9 °F 93% 30.07 in 8.0 mi ESE 3.5 mph - N/A   Clear
8:56 PM 48.0 °F - 46.0 °F 93% 30.07 in 9.0 mi ENE 3.5 mph - N/A   Clear
9:56 PM 46.0 °F - 44.1 °F 93% 30.07 in 8.0 mi Calm Calm - N/A   Scattered Clouds
10:05 PM 46.4 °F - 44.6 °F 93% 30.07 in 8.0 mi Calm Calm - N/A   Mostly Cloudy
10:16 PM 46.4 °F - 46.4 °F 100% 30.08 in 1.8 mi Calm Calm - N/A   Overcast
10:25 PM 46.4 °F - 46.4 °F 100% 30.09 in 0.5 mi Calm Calm - N/A Fog Fog
10:32 PM 46.4 °F - 46.4 °F 100% 30.09 in 0.2 mi Calm Calm - N/A Fog Fog
10:40 PM 46.4 °F - 46.4 °F 100% 30.09 in 1.0 mi Calm Calm - N/A   Mist
10:51 PM 46.4 °F - 46.4 °F 100% 30.09 in 2.0 mi Calm Calm - N/A   Overcast
10:56 PM 46.9 °F - 46.9 °F 100% 30.09 in 2.5 mi Calm Calm - N/A   Overcast
11:05 PM 46.4 °F - 46.4 °F 100% 30.09 in 3.0 mi Calm Calm - N/A   Overcast
11:56 PM 51.1 °F - 50.0 °F 96% 30.07 in 6.0 mi NNW 4.6 mph - N/A   Overcast